Weather History for Daviess Cnty AP, Washington,, IN

Change the Weather History Date:

Saturday, January 18, 2014

  Actual Average (KLWV) Record (KLWV)
Temperature  
Mean Temperature 25 °F 31 °F  
Max Temperature 36 °F 39 °F 43 °F (2011)
Min Temperature 15 °F 23 °F 1 °F (1997)
Degree Days  
Heating Degree Days 40 34  
Month to date heating degree days 612  
Since 1 July heating degree days 2411  
Cooling Degree Days 0 0  
Month to date cooling degree days 0  
Year to date cooling degree days 0  
Moisture  
Dew Point 19 °F    
Average Humidity 77    
Maximum Humidity 91    
Minimum Humidity 58    
Precipitation  
Precipitation 0.00 in 0.08 in 1.46 in (1969)
Month to date precipitation 1.62  
Year to date precipitation 1.62  
Sea Level Pressure  
Sea Level Pressure 29.91 in    
Wind  
Wind Speed 10 mph (SSW)    
Max Wind Speed 21 mph    
Max Gust Speed 28 mph    
Visibility 10 miles    
Events Snow    
T = Trace of Precipitation, MM = Missing Value Source: NWS Daily Summary

Daily Weather History Graph

Daily Weather History Graph

Search for Another Location

Airport:

Trip Planner

Search our weather history database for the weather conditions in past years. The results will help you decide how hot, cold, wet, or windy it might be!

Date:

Astronomy

Jan. 18, 2014 Rise Set
Actual Time 8:03 AM EST 5:54 PM EST
Civil Twilight 7:34 AM EST 6:23 PM EST
Nautical Twilight 7:02 AM EST 6:55 PM EST
Astronomical Twilight 6:30 AM EST 7:27 PM EST
Moon 8:33 PM EST (1/18) 9:05 AM EST (1/18)
Length of Visible Light 10h 48m
Length of Day
9h 50m
Waning Gibbous, 94% of the Moon is Illuminated
Jan 18
Waning Gibbous
Jan 24
Last Quarter
Jan 30
New
Feb 6
First Quarter
Feb 14
Full

Hourly Weather History & Observations

Time (EST) Temp. Windchill Dew Point Humidity Pressure Visibility Wind Dir Wind Speed Gust Speed Precip Events Conditions
12:15 AM 18.3 °F 6.6 °F 12.2 °F 77% 30.09 in 10.0 mi WSW 10.4 mph - N/A   Overcast
12:35 AM 18.5 °F 9.3 °F 12.4 °F 77% 30.08 in 10.0 mi WSW 6.9 mph - N/A   Overcast
12:55 AM 18.5 °F 9.3 °F 12.6 °F 78% 30.07 in 10.0 mi WSW 6.9 mph - N/A   Overcast
1:15 AM 18.9 °F 8.8 °F 13.1 °F 78% 30.07 in 10.0 mi WSW 8.1 mph - N/A   Overcast
1:35 AM 19.2 °F 10.2 °F 13.1 °F 77% 30.07 in 10.0 mi WSW 6.9 mph - N/A   Overcast
1:55 AM 19.2 °F 10.2 °F 13.1 °F 77% 30.06 in 10.0 mi WSW 6.9 mph - N/A Snow Light Snow
2:15 AM 19.4 °F 9.5 °F 13.3 °F 77% 30.07 in 10.0 mi WSW 8.1 mph - N/A   Overcast
2:35 AM 19.6 °F 8.9 °F 13.3 °F 77% 30.07 in 10.0 mi WSW 9.2 mph - N/A   Overcast
2:55 AM 19.9 °F 10.1 °F 13.8 °F 77% 30.07 in 10.0 mi WSW 8.1 mph - N/A   Overcast
3:15 AM 19.4 °F 10.4 °F 13.1 °F 76% 30.07 in 10.0 mi WSW 6.9 mph - N/A   Mostly Cloudy
3:35 AM 18.9 °F 8.8 °F 13.5 °F 79% 30.07 in 10.0 mi SW 8.1 mph - N/A   Scattered Clouds
3:55 AM 18.5 °F 10.4 °F 13.1 °F 79% 30.06 in 10.0 mi SW 5.8 mph - N/A   Clear
4:15 AM 18.3 °F 10.2 °F 13.1 °F 80% 30.06 in 10.0 mi SSW 5.8 mph - N/A   Clear
4:35 AM 18.1 °F 8.9 °F 13.5 °F 82% 30.04 in 10.0 mi SSW 6.9 mph - N/A   Clear
4:55 AM 18.1 °F 7.9 °F 13.1 °F 81% 30.04 in 10.0 mi SSW 8.1 mph - N/A   Clear
5:15 AM 18.0 °F 8.7 °F 13.1 °F 81% 30.04 in 10.0 mi SSW 6.9 mph - N/A   Clear
5:35 AM 18.1 °F 8.9 °F 13.1 °F 81% 30.05 in 10.0 mi SW 6.9 mph - N/A   Clear
5:55 AM 18.1 °F 7.9 °F 12.7 °F 79% 30.06 in 10.0 mi WSW 8.1 mph - N/A   Clear
6:15 AM 18.0 °F 8.7 °F 12.6 °F 79% 30.05 in 10.0 mi SW 6.9 mph - N/A   Clear
6:35 AM 17.8 °F 7.5 °F 12.7 °F 81% 30.06 in 10.0 mi SW 8.1 mph - N/A   Clear
6:55 AM 17.6 °F 9.3 °F 12.2 °F 79% 30.04 in 10.0 mi SSW 5.8 mph - N/A   Clear
7:15 AM 17.6 °F 8.2 °F 12.2 °F 79% 30.03 in 10.0 mi SSW 6.9 mph - N/A   Clear
7:35 AM 16.7 °F 8.3 °F 12.6 °F 84% 30.03 in 10.0 mi South 5.8 mph - N/A   Clear
7:55 AM 15.8 °F 6.1 °F 12.2 °F 86% 30.03 in 10.0 mi South 6.9 mph - N/A   Clear
8:15 AM 15.8 °F 5.1 °F 12.4 °F 86% 30.03 in 10.0 mi South 8.1 mph - N/A   Scattered Clouds
8:35 AM 16.3 °F 4.9 °F 12.7 °F 86% 30.01 in 10.0 mi South 9.2 mph - N/A   Scattered Clouds
8:55 AM 17.4 °F 6.2 °F 13.3 °F 84% 30.00 in 10.0 mi South 9.2 mph - N/A   Scattered Clouds
9:15 AM 19.0 °F 7.5 °F 14.2 °F 81% 30.00 in 10.0 mi South 10.4 mph - N/A   Mostly Cloudy
9:35 AM 20.7 °F 9.5 °F 14.7 °F 78% 30.01 in 10.0 mi South 10.4 mph - N/A   Mostly Cloudy
9:55 AM 21.0 °F 8.6 °F 14.0 °F 74% 30.00 in 10.0 mi South 12.7 mph - N/A   Mostly Cloudy
10:15 AM 21.7 °F 10.2 °F 14.5 °F 74% 29.99 in 10.0 mi South 11.5 mph - N/A   Scattered Clouds
10:35 AM 22.6 °F 11.9 °F 14.9 °F 72% 29.98 in 10.0 mi South 10.4 mph - N/A   Scattered Clouds
10:55 AM 23.5 °F 13.0 °F 15.4 °F 71% 29.97 in 10.0 mi South 10.4 mph - N/A   Mostly Cloudy
11:15 AM 24.3 °F 13.3 °F 15.1 °F 68% 29.96 in 10.0 mi South 11.5 mph - N/A   Mostly Cloudy
11:35 AM 24.8 °F 12.4 °F 15.3 °F 67% 29.95 in 10.0 mi South 15.0 mph 18.4 mph N/A   Mostly Cloudy
11:55 AM 25.7 °F 14.0 °F 15.3 °F 65% 29.92 in 10.0 mi South 13.8 mph - N/A   Overcast
12:15 PM 26.4 °F 14.0 °F 16.0 °F 65% 29.90 in 10.0 mi South 16.1 mph 23.0 mph N/A   Overcast
12:35 PM 27.0 °F 13.9 °F 16.5 °F 65% 29.87 in 10.0 mi SSE 18.4 mph - N/A   Overcast
12:55 PM 27.5 °F 13.9 °F 17.1 °F 65% 29.83 in 10.0 mi SSE 20.7 mph 25.3 mph N/A   Overcast
1:15 PM 28.0 °F 14.9 °F 17.4 °F 64% 29.81 in 10.0 mi SSE 19.6 mph 27.6 mph N/A   Overcast
1:35 PM 28.0 °F 14.9 °F 16.9 °F 63% 29.79 in 10.0 mi SSE 19.6 mph 24.2 mph N/A   Overcast
1:55 PM 28.4 °F 15.8 °F 16.5 °F 61% 29.77 in 10.0 mi SSE 18.4 mph 25.3 mph N/A   Overcast
2:15 PM 28.8 °F 17.5 °F 17.1 °F 62% 29.76 in 10.0 mi SSE 15.0 mph 21.9 mph N/A   Overcast
2:35 PM 29.5 °F 18.8 °F 17.8 °F 62% 29.76 in 10.0 mi SSE 13.8 mph 19.6 mph N/A   Overcast
2:55 PM 30.2 °F 19.8 °F 17.2 °F 59% 29.76 in 10.0 mi SSE 13.8 mph 21.9 mph N/A   Overcast
3:15 PM 30.7 °F 19.2 °F 17.4 °F 58% 29.75 in 10.0 mi SSE 17.3 mph - N/A   Overcast
3:35 PM 30.9 °F 19.8 °F 17.8 °F 58% 29.75 in 10.0 mi South 16.1 mph 21.9 mph N/A   Overcast
3:55 PM 31.1 °F 20.1 °F 18.1 °F 59% 29.76 in 10.0 mi South 16.1 mph 20.7 mph N/A   Overcast
4:15 PM 31.1 °F 20.5 °F 18.5 °F 60% 29.75 in 10.0 mi SSE 15.0 mph - N/A   Overcast
4:35 PM 31.1 °F 19.3 °F 19.6 °F 62% 29.76 in 5.0 mi South 18.4 mph 23.0 mph N/A Snow Light Snow
4:55 PM 30.9 °F 20.2 °F 21.4 °F 68% 29.77 in 3.0 mi SSW 15.0 mph 20.7 mph N/A Snow Light Snow
5:15 PM 30.2 °F 20.8 °F 24.3 °F 79% 29.78 in 1.5 mi SSW 11.5 mph 24.2 mph N/A Snow Light Snow
5:35 PM 30.0 °F 19.5 °F 26.2 °F 86% 29.77 in 4.0 mi SSW 13.8 mph - N/A Snow Light Snow
5:55 PM 30.2 °F 21.9 °F 26.6 °F 86% 29.78 in 10.0 mi South 9.2 mph - N/A   Overcast
6:15 PM 30.2 °F 21.9 °F 27.1 °F 88% 29.78 in 10.0 mi South 9.2 mph - N/A   Overcast
6:35 PM 30.4 °F 22.2 °F 27.5 °F 89% 29.77 in 10.0 mi South 9.2 mph - N/A   Overcast
6:55 PM 30.7 °F 24.9 °F 27.9 °F 89% 29.78 in 10.0 mi South 5.8 mph - N/A   Overcast
7:15 PM 30.9 °F 25.2 °F 28.2 °F 90% 29.77 in 10.0 mi South 5.8 mph - N/A Snow Light Snow
7:35 PM 30.9 °F 25.2 °F 28.4 °F 90% 29.78 in 10.0 mi South 5.8 mph - N/A   Overcast
7:55 PM 31.6 °F 25.1 °F 29.3 °F 91% 29.78 in 10.0 mi SSW 6.9 mph - N/A   Overcast
8:15 PM 32.0 °F 24.2 °F 29.7 °F 91% 29.77 in 10.0 mi SSW 9.2 mph - N/A   Overcast
8:35 PM 33.1 °F 25.5 °F 29.8 °F 88% 29.77 in 10.0 mi SSW 9.2 mph - N/A   Overcast
8:55 PM 33.8 °F 26.4 °F 30.0 °F 86% 29.77 in 10.0 mi SW 9.2 mph 16.1 mph N/A   Overcast
9:15 PM 34.2 °F 24.8 °F 30.2 °F 85% 29.77 in 10.0 mi SSW 13.8 mph - N/A   Overcast
9:35 PM 34.2 °F 26.8 °F 30.9 °F 88% 29.77 in 10.0 mi SW 9.2 mph - N/A Snow Light Snow
9:55 PM 34.2 °F 28.2 °F 31.1 °F 89% 29.77 in 10.0 mi SW 6.9 mph - N/A   Overcast
10:15 PM 34.9 °F 27.7 °F 30.6 °F 84% 29.77 in 10.0 mi SW 9.2 mph - N/A   Overcast
10:35 PM 34.9 °F 27.1 °F 30.2 °F 83% 29.77 in 10.0 mi SW 10.4 mph 16.1 mph N/A   Overcast
10:55 PM 35.6 °F 28.0 °F 30.4 °F 81% 29.77 in 10.0 mi SW 10.4 mph 16.1 mph N/A   Overcast
11:15 PM 35.8 °F 26.9 °F 31.1 °F 83% 29.77 in 10.0 mi WSW 13.8 mph - N/A   Overcast
11:35 PM 35.8 °F 26.9 °F 32.0 °F 86% 29.78 in 10.0 mi West 13.8 mph 17.3 mph N/A   Overcast
11:55 PM 36.0 °F 27.5 °F 32.2 °F 86% 29.78 in 10.0 mi West 12.7 mph 18.4 mph N/A   Overcast